User: anonymous   Login
Location: Caracas
(10.5033°N, 66.8422°W)
Time: 10:31:59
(UTC-04:00)
Language:

M-CUBED/EXP-1 PRIME - Orbit

View from above orbital plane
View from above orbital plane
View from above satellite
View from above satellite

Ground track
Ground track

The orbit data is extracted from the following two-line orbital elements,

1 37855U 11061F   18229.85448175  .00000627  00000-0  40256-4 0  9997
2 37855 101.7145 323.9293 0175908 259.6616  98.4725 15.04580954370922
Epoch (UTC): 17 August 2018 20:30:27
Eccentricity: 0.0175908
inclination: 101.7145°
perigee height: 431 km
apogee height: 675 km
right ascension of ascending node: 323.9293°
argument of perigee: 259.6616°
revolutions per day: 15.04580954
mean anomaly at epoch: 98.4725°
orbit number at epoch: 37092

The dashed part of the orbit path shows where the satellite is in the earth's shadow,  

DLR